Simultaneous Nadir Overpasses (SNOs) Predictions

Prediction of SNOs between GOES-15 and TERRA Satellite Orbit:

Table of predicted SNOs for the next 14.0 days since TLE Epoch: 11/22/2014
Index Date Time (GOES-15) GOES-15 Lat,Lon TERRA Lat,Lon Distance(km) Time Diff (sec)
1 11/22/2014 07:37:00 0.18,-134.97 -0.14,-136.33 156.09 80
2 11/24/2014 07:22:11 0.18,-135.03 0.52,-133.39 185.62 80
3 11/24/2014 19:46:07 -0.16,-135.06 0.58,-138.55 397.27 80
4 11/26/2014 19:33:57 -0.16,-135.11 -0.05,-135.60 56.08 80
5 11/28/2014 19:19:07 -0.16,-135.15 -0.70,-132.65 284.75 80
6 11/29/2014 07:43:11 0.14,-135.15 -0.43,-137.84 305.18 80
7 12/01/2014 07:28:20 0.15,-135.19 0.19,-134.88 35.23 80
8 12/03/2014 07:16:09 0.15,-135.23 0.83,-131.93 375.20 80
9 12/03/2014 19:40:05 -0.13,-135.25 0.24,-137.09 208.81 80
10 12/05/2014 19:25:13 -0.13,-135.28 -0.37,-134.13 130.92 80




NCC Satellite Simultaneous Nadir Overpasses (SNOs) Prediction Service
